Terminal Aerodrome Forecast
Issued by NWS

Home | Current Version | Previous Version | Text Only | Print | Product List | Glossary On
Versions: 1 2 3 4 5 6 7 8 9 10 11 12 13 14 15 16 17 18 19 20
070
FTUS46 KLOX 210539
TAFPMD
TAF
KPMD 210539Z 2106/2206 28017G27KT P6SM SKC
     FM210700 28014KT P6SM SKC
     FM210900 29011KT P6SM SKC
     FM211200 28007KT P6SM SKC
     FM211700 04007KT P6SM SKC
     FM212000 04012KT P6SM SKC
     FM220400 VRB05KT P6SM SKC=

USA.gov is the U.S. government's official web portal to all federal, state and local government web resources and services.